QPF
0.00 0.00 0.00 0.00 0.00 0.00 0.06 0.08 0.02 0.03 0.13 0.02 0.07 0.01 0.00 0.03 0.01 0.01 0.00 0.03 0.03 0.01 0.00 0.00 0.02 0.01 0.00 0.00 0.00 0.00 0.00 0.00 0.00 0.01 0.00 0.03 0.00 0.00 0.00 0.00 0.00 0.00 0.00
0.00 0.00 0.00 0.00 0.00 0.00 0.00 0.03 0.10 0.04 0.17 0.06 0.03 0.02 0.00 0.01 0.01 0.01 0.00 0.00 0.02 0.03 0.08 0.02 0.03 0.04 0.02 0.00 0.00 0.00 0.00 0.00 0.00 0.00 0.01 0.03 0.01 0.01 0.00 0.00 0.00 0.00 0.00
0.00 0.00 0.00 0.00 0.00 0.00 0.00 0.05 0.12 0.06 0.05 0.03 0.02 0.01 0.00 0.00 0.00 0.01 0.00 0.00 0.01 0.05 0.06 0.10 0.07 0.11 0.03 0.01 0.00 0.00 0.01 0.01 0.00 0.00 0.00 0.00 0.01 0.00 0.00 0.00 0.00 0.00 0.00
0.00 0.00 0.00 0.00 0.00 0.00 0.00 0.01 0.12 0.18 0.15 0.04 0.08 0.03 0.00 0.00 0.00 0.06 0.02 0.00 0.00 0.03 0.07 0.16 0.10 0.07 0.07 0.02 0.00 0.00 0.00 0.01 0.00 0.00 0.00 0.00 0.00 0.00 0.00 0.00 0.00 0.00 0.00
0.00 0.00 0.00 0.00 0.00 0.00 0.01 0.02 0.03 0.08 0.06 0.02 0.07 0.07 0.01 0.00 0.00 0.02 0.04 0.00 0.00 0.01 0.08 0.05 0.05 0.09 0.04 0.02 0.00 0.00 0.00 0.00 0.00 0.00 0.01 0.01 0.01 0.01 0.00 0.00 0.00 0.00 0.00
0.00 0.00 0.00 0.00 0.00 0.04 0.00 0.02 0.04 0.09 0.00 0.00 0.05 0.04 0.03 0.09 0.02 0.04 0.02 0.00 0.01 0.01 0.04 0.09 0.05 0.04 0.06 0.04 0.01 0.00 0.00 0.00 0.00 0.00 0.00 0.00 0.00 0.00 0.00 0.00 0.00 0.00 0.00
0.00 0.00 0.00 0.00 0.00 0.01 0.00 0.01 0.05 0.00 0.00 0.00 0.00 0.00 0.01 0.05 0.05 0.05 0.02 0.00 0.00 0.01 0.01 0.01 0.01 0.02 0.02 0.05 0.02 0.01 0.00 0.00 0.00 0.00 0.00 0.00 0.00 0.00 0.00 0.00 0.00 0.00 0.00
0.00 0.00 0.00 0.00 0.00 0.00 0.00 0.00 0.01 0.00 0.00 0.00 0.00 0.03 0.02 0.00 0.03 0.02 0.00 0.00 0.00 0.00 0.00 0.00 0.00 0.00 0.00 0.02 0.01 0.01 0.00 0.01 0.00 0.00 0.00 0.00 0.00 0.00 0.00 0.00 0.00 0.00 0.00
0.00 0.00 0.00 0.00 0.00 0.00 0.00 0.00 0.00 0.00 0.00 0.00 0.00 0.01 0.00 0.01 0.02 0.02 0.03 0.00 0.00 0.00 0.00 0.00 0.00 0.00 0.00 0.00 0.00 0.01 0.00 0.00 0.00 0.00 0.00 0.00 0.00 0.00 0.00 0.00 0.00 0.00 0.00
0.00 0.00 0.00 0.00 0.00 0.00 0.00 0.03 0.02 0.02 0.00 0.02 0.01 0.00 0.00 0.00 0.01 0.02 0.03 0.00 0.00 0.00 0.00 0.00 0.00 0.00 0.00 0.00 0.00 0.00 0.00 0.00 0.00 0.00 0.00 0.00 0.00 0.00 0.00 0.00 0.00 0.00 0.00
0.00 0.00 0.00 0.00 0.00 0.00 0.00 0.00 0.00 0.06 0.03 0.02 0.00 0.00 0.00 0.00 0.01 0.01 0.05 0.03 0.00 0.00 0.00 0.00 0.00 0.00 0.00 0.00 0.00 0.00 0.00 0.00 0.00 0.00 0.00 0.00 0.00 0.00 0.00 0.00 0.00 0.00 0.00
0.00 0.00 0.00 0.00 0.00 0.00 0.00 0.00 0.01 0.01 0.08 0.15 0.07 0.01 0.00 0.00 0.04 0.07 0.03 0.07 0.04 0.01 0.01 0.00 0.00 0.00 0.00 0.00 0.00 0.00 0.00 0.00 0.00 0.00 0.00 0.00 0.00 0.00 0.00 0.00 0.00 0.00 0.00
0.00 0.00 0.01 0.00 0.00 0.04 0.01 0.00 0.00 0.00 0.00 0.05 0.13 0.09 0.03 0.01 0.02 0.06 0.03 0.02 0.02 0.06 0.01 0.00 0.00 0.00 0.00 0.00 0.00 0.00 0.00 0.00 0.00 0.00 0.00 0.00 0.00 0.00 0.00 0.00 0.00 0.00 0.00
0.05 0.05 0.05 0.03 0.00 0.04 0.04 0.00 0.00 0.01 0.03 0.02 0.02 0.01 0.00 0.01 0.01 0.01 0.04 0.04 0.02 0.05 0.01 0.00 0.00 0.00 0.00 0.00 0.00 0.00 0.00 0.00 0.00 0.00 0.00 0.00 0.00 0.00 0.00 0.00 0.00 0.00 0.00
0.05 0.16 0.17 0.18 0.03 0.00 0.01 0.03 0.00 0.01 0.04 0.04 0.01 0.05 0.04 0.05 0.03 0.01 0.07 0.06 0.02 0.03 0.03 0.01 0.00 0.00 0.00 0.00 0.00 0.00 0.00 0.00 0.00 0.00 0.00 0.00 0.00 0.00 0.00 0.00 0.00 0.00 0.00
0.04 0.12 0.35 0.14 0.00 0.01 0.00 0.00 0.00 0.00 0.01 0.04 0.02 0.03 0.06 0.08 0.09 0.01 0.06 0.09 0.06 0.02 0.05 0.04 0.01 0.00 0.00 0.00 0.00 0.00 0.00 0.00 0.00 0.00 0.00 0.00 0.00 0.00 0.00 0.00 0.00 0.00 0.00
0.00 0.04 0.05 0.02 0.00 0.00 0.00 0.00 0.00 0.00 0.00 0.00 0.04 0.02 0.00 0.05 0.07 0.06 0.07 0.07 0.08 0.04 0.03 0.06 0.04 0.01 0.00 0.00 0.00 0.00 0.00 0.00 0.00 0.00 0.00 0.00 0.00 0.00 0.00 0.00 0.00 0.00 0.00
0.00 0.00 0.00 0.00 0.00 0.00 0.00 0.00 0.00 0.01 0.01 0.00 0.05 0.02 0.00 0.02 0.02 0.04 0.09 0.09 0.06 0.07 0.07 0.03 0.02 0.01 0.02 0.01 0.00 0.00 0.00 0.00 0.00 0.00 0.00 0.00 0.00 0.00 0.00 0.00 0.00 0.00 0.00
0.00 0.00 0.00 0.00 0.00 0.00 0.00 0.00 0.00 0.00 0.00 0.00 0.00 0.00 0.03 0.04 0.02 0.07 0.07 0.06 0.02 0.01 0.10 0.15 0.09 0.07 0.07 0.07 0.03 0.02 0.00 0.00 0.00 0.00 0.00 0.00 0.00 0.00 0.00 0.00 0.00 0.00 0.00
0.00 0.00 0.00 0.00 0.00 0.00 0.00 0.00 0.00 0.00 0.00 0.00 0.00 0.00 0.00 0.00 0.01 0.03 0.05 0.06 0.07 0.05 0.09 0.07 0.04 0.08 0.05 0.11 0.08 0.05 0.02 0.00 0.00 0.00 0.00 0.00 0.00 0.00 0.00 0.00 0.00 0.00 0.00
0.00 0.00 0.00 0.00 0.00 0.00 0.00 0.00 0.00 0.00 0.00 0.00 0.00 0.00 0.00 0.00 0.06 0.05 0.05 0.06 0.09 0.10 0.12 0.06 0.02 0.03 0.02 0.01 0.03 0.04 0.07 0.14 0.10 0.06 0.06 0.05 0.04 0.01 0.00 0.00 0.00 0.00 0.00
0.00 0.00 0.00 0.00 0.00 0.00 0.00 0.00 0.00 0.00 0.00 0.00 0.00 0.00 0.00 0.00 0.02 0.08 0.11 0.08 0.07 0.06 0.05 0.02 0.00 0.04 0.06 0.03 0.01 0.06 0.13 0.22 0.10 0.04 0.07 0.04 0.09 0.05 0.07 0.07 0.06 0.01 0.00
0.00 0.00 0.00 0.00 0.00 0.00 0.00 0.00 0.00 0.00 0.00 0.00 0.00 0.00 0.00 0.00 0.00 0.00 0.05 0.07 0.04 0.02 0.02 0.01 0.01 0.02 0.04 0.17 0.12 0.06 0.07 0.08 0.02 0.08 0.16 0.16 0.17 0.10 0.16 0.17 0.16 0.12 0.05
0.00 0.00 0.00 0.00 0.00 0.00 0.00 0.00 0.00 0.00 0.02 0.01 0.02 0.00 0.00 0.00 0.00 0.00 0.00 0.00 0.00 0.03 0.04 0.04 0.02 0.03 0.03 0.08 0.39 0.30 0.18 0.11 0.03 0.01 0.03 0.03 0.03 0.03 0.04 0.10 0.14 0.11 0.07
0.00 0.01 0.03 0.02 0.06 0.08 0.09 0.05 0.01 0.00 0.00 0.02 0.01 0.00 0.00 0.00 0.00 0.00 0.00 0.00 0.00 0.00 0.00 0.04 0.05 0.01 0.02 0.03 0.08 0.17 0.18 0.12 0.04 0.02 0.02 0.09 0.07 0.10 0.10 0.04 0.09 0.09 0.03
0.01 0.05 0.07 0.16 0.26 0.22 0.22 0.14 0.06 0.01 0.00 0.00 0.00 0.00 0.00 0.00 0.00 0.00 0.00 0.00 0.00 0.00 0.00 0.00 0.01 0.01 0.01 0.00 0.01 0.05 0.13 0.07 0.07 0.05 0.06 0.07 0.06 0.08 0.07 0.06 0.07 0.05 0.07
MSLP
1016.95 1017.05 1017.53 1017.82 1018.03 1018.28 1018.56 1018.80 1019.04 1019.40 1019.52 1019.66 1019.87 1019.87 1019.87 1020.00 1020.51 1020.79 1021.01 1021.05 1021.08 1021.00 1021.11 1021.45 1021.77 1022.05 1022.45 1022.74 1022.71 1022.72 1022.99 1023.25 1023.43 1023.62 1023.85 1024.10 1024.30 1024.47 1024.61 1024.80 1024.96 1025.09 1025.13
1016.50 1016.82 1017.19 1017.60 1017.85 1018.01 1018.03 1018.39 1018.85 1019.19 1019.69 1019.78 1019.91 1019.78 1019.83 1020.15 1020.34 1020.59 1020.96 1021.03 1021.11 1021.21 1021.24 1021.46 1021.77 1022.18 1022.44 1022.71 1022.80 1022.84 1023.06 1023.21 1023.55 1023.77 1024.03 1024.26 1024.53 1024.68 1024.83 1025.02 1025.14 1025.33 1025.40
1016.34 1016.64 1016.91 1017.22 1017.46 1017.48 1017.67 1018.24 1018.70 1019.09 1019.53 1019.77 1019.97 1019.78 1019.94 1020.04 1020.18 1020.36 1020.83 1021.06 1021.01 1021.17 1021.34 1021.48 1021.79 1022.13 1022.42 1022.56 1022.75 1022.87 1023.09 1023.43 1023.60 1023.90 1024.17 1024.42 1024.61 1024.82 1024.98 1025.16 1025.30 1025.46 1025.64
1015.92 1016.33 1016.97 1017.14 1017.18 1017.33 1017.41 1017.94 1018.63 1019.16 1019.46 1019.64 1019.80 1019.93 1019.85 1019.94 1020.09 1020.28 1020.71 1021.02 1021.14 1021.21 1021.27 1021.54 1021.85 1022.31 1022.25 1022.43 1022.62 1022.86 1023.11 1023.39 1023.70 1023.94 1024.24 1024.44 1024.70 1024.95 1025.11 1025.24 1025.41 1025.56 1025.73
1015.60 1016.02 1016.54 1016.80 1016.90 1017.25 1017.61 1018.10 1018.74 1019.02 1019.34 1019.61 1019.69 1019.71 1019.94 1020.07 1020.09 1020.20 1020.47 1020.72 1020.96 1021.04 1021.29 1021.60 1021.91 1022.09 1022.20 1022.24 1022.49 1022.74 1023.10 1023.17 1023.62 1023.89 1024.19 1024.44 1024.67 1024.97 1025.18 1025.31 1025.45 1025.61 1025.79
1015.35 1015.74 1016.21 1016.50 1016.74 1017.22 1017.73 1018.18 1018.55 1018.79 1018.91 1019.18 1019.39 1019.54 1019.84 1019.94 1019.91 1019.99 1020.15 1020.44 1020.62 1020.83 1021.22 1021.54 1021.71 1022.00 1022.09 1022.17 1022.41 1022.61 1022.96 1023.09 1023.50 1023.79 1024.14 1024.45 1024.68 1024.94 1025.14 1025.33 1025.41 1025.57 1025.76
1015.09 1015.57 1015.98 1016.33 1016.45 1016.93 1017.29 1017.85 1018.33 1018.62 1019.00 1019.06 1019.46 1019.62 1019.51 1019.59 1019.80 1019.78 1019.84 1020.14 1020.41 1020.59 1021.04 1021.35 1021.52 1021.84 1021.89 1022.04 1022.34 1022.49 1022.73 1023.00 1023.28 1023.71 1024.00 1024.35 1024.60 1024.85 1025.04 1025.22 1025.37 1025.54 1025.72
1014.73 1015.13 1015.49 1016.02 1016.43 1016.76 1017.12 1017.47 1017.80 1018.45 1018.79 1018.90 1019.14 1019.26 1019.35 1019.49 1019.47 1019.46 1019.62 1019.92 1020.08 1020.26 1020.60 1021.10 1021.29 1021.59 1021.72 1021.98 1022.21 1022.32 1022.58 1022.78 1023.02 1023.45 1023.87 1024.18 1024.42 1024.66 1024.89 1025.08 1025.27 1025.44 1025.62
1014.24 1014.67 1015.10 1015.46 1015.97 1016.32 1016.74 1017.23 1017.55 1017.88 1018.36 1018.67 1018.63 1018.72 1019.17 1019.07 1019.01 1019.09 1019.22 1019.47 1019.78 1020.11 1020.24 1020.48 1020.84 1021.12 1021.41 1021.71 1021.93 1022.09 1022.30 1022.57 1022.81 1023.14 1023.51 1023.90 1024.17 1024.40 1024.64 1024.87 1025.09 1025.28 1025.46
1013.91 1014.29 1014.71 1015.03 1015.51 1015.99 1016.49 1016.83 1017.22 1017.47 1017.60 1018.19 1018.57 1018.47 1018.55 1018.50 1018.67 1019.00 1019.03 1019.11 1019.36 1019.56 1019.81 1019.88 1020.06 1020.37 1020.79 1021.18 1021.40 1021.65 1021.89 1022.28 1022.53 1022.83 1023.22 1023.52 1023.83 1024.15 1024.38 1024.61 1024.85 1025.01 1025.18
1013.70 1013.99 1014.33 1014.68 1015.24 1015.66 1015.96 1016.40 1016.76 1017.08 1017.27 1017.48 1017.67 1017.98 1018.36 1018.47 1018.49 1018.67 1018.78 1018.93 1019.18 1019.09 1019.11 1019.09 1019.34 1019.65 1020.04 1020.40 1020.72 1021.00 1021.33 1021.70 1022.10 1022.41 1022.73 1023.08 1023.39 1023.76 1024.05 1024.24 1024.49 1024.69 1024.81
1013.78 1013.76 1013.96 1014.22 1014.53 1015.08 1015.37 1015.79 1016.17 1016.51 1016.80 1017.02 1017.07 1017.28 1017.48 1017.95 1018.13 1018.30 1018.55 1018.59 1018.58 1018.43 1018.44 1018.57 1018.70 1019.01 1019.30 1019.68 1019.97 1020.24 1020.63 1021.01 1021.45 1021.83 1022.20 1022.54 1022.84 1023.17 1023.53 1023.84 1024.08 1024.28 1024.47
1013.51 1013.65 1013.88 1014.16 1014.36 1014.65 1014.84 1015.21 1015.81 1016.16 1016.30 1016.67 1016.77 1016.91 1017.00 1016.99 1017.17 1017.34 1017.97 1017.97 1018.00 1017.92 1017.89 1017.89 1017.83 1018.15 1018.53 1018.87 1019.19 1019.53 1019.91 1020.29 1020.67 1021.15 1021.54 1021.93 1022.34 1022.69 1022.96 1023.20 1023.52 1023.78 1023.98
1012.59 1012.98 1013.35 1013.68 1013.94 1014.15 1014.65 1014.90 1015.41 1015.75 1015.96 1016.17 1016.23 1016.32 1016.44 1016.50 1016.76 1016.86 1017.11 1017.63 1017.84 1017.70 1017.53 1017.21 1017.14 1017.24 1017.54 1017.90 1018.28 1018.77 1019.18 1019.57 1019.94 1020.35 1020.85 1021.31 1021.73 1022.13 1022.47 1022.68 1022.96 1023.23 1023.48
1011.90 1012.46 1012.98 1013.41 1013.70 1013.93 1014.31 1014.71 1015.06 1015.33 1015.58 1015.64 1015.53 1015.66 1015.93 1015.87 1016.05 1016.22 1016.47 1016.68 1017.11 1017.21 1017.01 1016.61 1016.57 1016.33 1016.73 1017.03 1017.40 1017.85 1018.33 1018.71 1019.29 1019.73 1020.18 1020.61 1021.09 1021.57 1021.94 1022.28 1022.49 1022.77 1023.02
1011.39 1012.07 1012.59 1012.75 1013.35 1013.72 1014.03 1014.43 1014.79 1014.97 1015.18 1015.18 1015.13 1015.23 1015.34 1015.16 1015.24 1015.31 1015.50 1015.76 1016.23 1016.26 1016.32 1016.01 1015.95 1015.73 1015.94 1016.32 1016.63 1017.05 1017.48 1017.89 1018.41 1018.96 1019.44 1019.86 1020.27 1020.75 1021.25 1021.63 1021.93 1022.12 1022.33
1010.95 1011.42 1011.97 1012.42 1012.87 1013.29 1013.65 1014.07 1014.32 1014.51 1014.62 1014.67 1014.79 1014.74 1014.44 1014.28 1014.38 1014.47 1014.72 1014.96 1015.30 1015.47 1015.77 1015.82 1015.75 1015.60 1015.66 1015.84 1016.09 1016.33 1016.73 1017.11 1017.58 1018.11 1018.53 1018.96 1019.39 1019.84 1020.32 1020.78 1021.18 1021.53 1021.81
1010.57 1011.06 1011.60 1012.14 1012.61 1012.93 1013.25 1013.62 1013.81 1013.92 1014.17 1014.28 1014.12 1014.14 1013.83 1013.77 1013.60 1013.60 1013.78 1013.91 1014.22 1014.64 1015.20 1015.54 1015.48 1015.44 1015.46 1015.51 1015.47 1015.90 1016.00 1016.32 1016.77 1017.23 1017.77 1018.16 1018.52 1019.03 1019.48 1019.99 1020.42 1020.69 1020.97
1010.18 1010.75 1011.28 1011.85 1012.32 1012.59 1012.83 1013.01 1013.17 1013.33 1013.53 1013.59 1013.52 1013.43 1013.34 1013.32 1013.12 1013.01 1013.02 1013.24 1013.36 1013.86 1014.53 1014.91 1014.90 1015.23 1015.09 1015.23 1015.53 1015.61 1015.64 1015.74 1016.00 1016.23 1016.80 1017.28 1017.66 1018.09 1018.54 1019.01 1019.41 1019.81 1020.25
1010.08 1010.55 1011.01 1011.40 1011.78 1012.08 1012.42 1012.67 1012.88 1013.03 1013.07 1013.04 1013.06 1013.06 1012.92 1012.73 1012.44 1012.32 1012.44 1012.53 1012.71 1013.20 1013.85 1014.33 1014.76 1014.78 1014.73 1014.93 1015.24 1015.46 1015.48 1015.42 1015.68 1015.80 1016.19 1016.58 1017.08 1017.51 1017.84 1018.28 1018.82 1019.27 1019.68
1009.86 1010.19 1010.72 1011.18 1011.50 1011.75 1011.90 1012.19 1012.51 1012.74 1012.89 1013.04 1013.04 1012.97 1012.76 1012.47 1011.96 1011.61 1011.83 1012.13 1012.44 1012.88 1013.38 1014.03 1014.35 1014.28 1014.42 1014.64 1014.65 1014.57 1014.95 1015.42 1015.48 1015.65 1015.96 1016.17 1016.61 1017.03 1017.40 1017.83 1018.09 1018.44 1018.76
1009.80 1010.24 1010.55 1010.74 1011.10 1011.41 1011.55 1011.68 1011.94 1012.30 1012.64 1012.85 1013.00 1012.94 1012.84 1012.48 1012.26 1012.03 1011.90 1011.92 1012.12 1012.43 1013.03 1013.55 1013.80 1013.86 1013.85 1013.77 1013.94 1014.22 1014.68 1015.34 1015.68 1015.04 1015.63 1015.84 1016.23 1016.61 1016.61 1016.91 1017.09 1017.37 1017.65
1009.52 1009.92 1010.29 1010.70 1011.07 1011.17 1011.18 1011.38 1011.65 1011.91 1012.10 1012.32 1012.55 1012.69 1012.69 1012.47 1012.50 1012.44 1012.53 1012.67 1012.63 1012.61 1012.60 1012.75 1013.03 1013.15 1013.29 1013.46 1013.76 1013.94 1014.34 1014.75 1014.62 1014.57 1015.06 1015.64 1016.09 1016.20 1015.84 1016.18 1016.41 1016.77 1017.03
1008.84 1009.15 1009.55 1009.96 1010.37 1010.70 1010.93 1011.12 1011.21 1011.58 1011.88 1012.07 1012.28 1012.33 1012.45 1012.49 1012.47 1012.55 1012.73 1012.95 1013.06 1012.91 1012.80 1012.79 1012.78 1012.77 1012.93 1013.00 1013.42 1013.60 1013.78 1013.98 1014.29 1014.33 1014.42 1015.17 1015.36 1015.35 1015.33 1015.64 1015.86 1015.93 1016.37
1007.96 1008.12 1008.29 1008.88 1009.54 1009.84 1010.19 1010.47 1011.00 1011.32 1011.49 1011.79 1012.10 1012.22 1012.27 1012.30 1012.44 1012.52 1012.66 1012.84 1012.90 1012.91 1012.76 1012.88 1012.89 1012.81 1012.86 1013.00 1013.03 1013.49 1013.72 1014.05 1014.16 1013.86 1013.89 1014.55 1015.00 1015.38 1015.62 1015.48 1015.57 1015.78 1015.96
1007.15 1007.25 1007.58 1007.54 1007.19 1008.19 1009.36 1010.08 1010.76 1010.98 1011.27 1011.58 1011.58 1011.74 1012.03 1012.03 1012.02 1012.22 1012.48 1012.61 1012.79 1012.48 1012.41 1012.58 1012.78 1012.95 1012.98 1013.17 1013.19 1013.23 1013.21 1013.34 1013.44 1013.63 1013.37 1014.02 1014.54 1014.96 1015.55 1015.52 1015.65 1015.92 1016.11
Thickness
5771 5772 5769 5768 5765 5763 5761 5758 5755 5753 5752 5751 5750 5749 5748 5747 5744 5740 5738 5736 5734 5733 5733 5730 5727 5725 5723 5721 5723 5727 5729 5732 5732 5733 5732 5731 5730 5730 5730 5731 5732 5733 5734
5776 5773 5771 5769 5767 5766 5765 5761 5758 5756 5751 5751 5751 5751 5748 5745 5741 5740 5737 5735 5733 5731 5731 5729 5726 5723 5722 5721 5721 5722 5726 5727 5731 5731 5731 5730 5729 5729 5729 5729 5731 5732 5732
5777 5775 5773 5771 5769 5770 5769 5763 5759 5757 5753 5751 5751 5751 5748 5744 5742 5740 5736 5734 5733 5731 5730 5730 5726 5723 5721 5721 5719 5720 5722 5726 5729 5730 5729 5729 5729 5728 5728 5728 5729 5730 5730
5780 5778 5773 5772 5772 5771 5771 5767 5762 5757 5754 5753 5751 5750 5748 5746 5744 5743 5739 5735 5733 5732 5731 5728 5726 5721 5722 5721 5719 5718 5722 5724 5727 5728 5728 5729 5728 5728 5727 5728 5728 5729 5729
5780 5777 5775 5774 5774 5771 5769 5766 5760 5757 5753 5752 5750 5749 5748 5746 5744 5742 5740 5737 5735 5733 5731 5727 5723 5722 5721 5721 5719 5719 5721 5726 5726 5728 5728 5728 5728 5728 5727 5727 5728 5729 5729
5781 5777 5775 5774 5773 5770 5767 5763 5760 5756 5755 5754 5751 5748 5747 5746 5745 5743 5741 5739 5737 5735 5732 5728 5726 5723 5722 5721 5719 5719 5721 5725 5727 5727 5728 5728 5728 5727 5728 5728 5728 5729 5729
5781 5778 5775 5773 5772 5769 5767 5763 5760 5758 5755 5755 5750 5748 5749 5748 5747 5746 5744 5741 5738 5737 5734 5730 5728 5725 5724 5723 5721 5720 5723 5725 5728 5728 5728 5728 5728 5728 5728 5728 5729 5728 5729
5781 5779 5777 5774 5771 5768 5766 5764 5763 5757 5755 5755 5749 5748 5740 5744 5746 5748 5746 5744 5742 5740 5737 5733 5731 5729 5728 5726 5725 5724 5725 5727 5729 5729 5728 5728 5729 5729 5729 5730 5730 5729 5729
5783 5780 5777 5775 5773 5771 5767 5764 5763 5760 5753 5754 5756 5750 5739 5739 5745 5749 5749 5747 5745 5742 5740 5738 5735 5733 5732 5731 5729 5728 5728 5729 5730 5730 5730 5729 5730 5730 5730 5730 5730 5730 5730
5784 5782 5778 5776 5773 5770 5766 5764 5762 5761 5760 5753 5753 5755 5753 5752 5743 5740 5747 5749 5748 5746 5744 5744 5742 5740 5738 5737 5735 5734 5732 5731 5731 5731 5731 5731 5731 5731 5731 5731 5730 5731 5731
5783 5781 5778 5775 5772 5769 5768 5765 5763 5761 5760 5757 5756 5753 5750 5750 5750 5745 5742 5745 5746 5749 5749 5749 5748 5746 5745 5743 5743 5740 5739 5737 5735 5734 5734 5734 5733 5732 5732 5732 5731 5731 5732
5780 5780 5778 5776 5774 5770 5768 5766 5765 5762 5760 5758 5758 5756 5753 5748 5747 5746 5745 5745 5747 5751 5754 5754 5752 5751 5750 5748 5747 5746 5745 5742 5740 5739 5738 5737 5736 5736 5735 5734 5734 5733 5732
5779 5778 5777 5776 5774 5771 5769 5766 5762 5760 5759 5756 5757 5756 5755 5756 5755 5752 5748 5747 5749 5752 5755 5757 5757 5756 5754 5753 5752 5750 5750 5749 5746 5744 5743 5742 5740 5738 5738 5738 5737 5736 5735
5784 5782 5780 5777 5775 5771 5768 5766 5761 5759 5757 5755 5757 5756 5756 5757 5756 5755 5752 5748 5744 5748 5753 5756 5762 5761 5761 5759 5757 5754 5753 5753 5752 5750 5747 5745 5744 5742 5741 5741 5741 5740 5739
5789 5785 5781 5775 5772 5771 5768 5764 5760 5758 5758 5757 5758 5757 5756 5758 5759 5758 5756 5753 5748 5744 5749 5758 5760 5765 5763 5763 5763 5760 5758 5758 5755 5753 5751 5749 5747 5745 5743 5742 5742 5742 5741
5791 5785 5780 5775 5773 5771 5768 5764 5761 5759 5757 5757 5758 5758 5758 5762 5762 5762 5760 5758 5756 5755 5752 5761 5763 5767 5766 5765 5764 5763 5761 5760 5759 5757 5755 5753 5752 5750 5746 5744 5743 5744 5744
5792 5788 5783 5778 5775 5771 5768 5764 5762 5760 5757 5757 5757 5758 5761 5765 5765 5766 5763 5762 5759 5759 5754 5757 5760 5764 5766 5767 5765 5765 5763 5762 5761 5761 5760 5758 5757 5755 5753 5750 5748 5747 5745
5794 5789 5786 5781 5777 5773 5770 5765 5763 5761 5757 5756 5757 5756 5759 5764 5766 5768 5768 5766 5765 5761 5754 5750 5757 5761 5763 5767 5769 5766 5765 5763 5762 5761 5760 5760 5760 5757 5755 5752 5750 5751 5750
5794 5790 5785 5780 5775 5772 5769 5768 5765 5763 5760 5759 5759 5759 5759 5760 5763 5765 5767 5766 5765 5759 5755 5753 5753 5757 5761 5762 5761 5764 5764 5764 5763 5763 5762 5761 5761 5760 5758 5756 5755 5753 5751
5792 5788 5784 5780 5777 5773 5769 5767 5764 5761 5760 5760 5759 5759 5760 5761 5763 5766 5765 5765 5764 5760 5755 5753 5752 5753 5756 5757 5759 5757 5758 5763 5761 5761 5761 5761 5759 5759 5758 5756 5753 5750 5748
5792 5788 5783 5779 5776 5773 5771 5767 5764 5761 5759 5756 5757 5758 5760 5761 5764 5767 5765 5763 5761 5756 5752 5749 5750 5753 5752 5752 5755 5758 5757 5755 5755 5759 5758 5759 5757 5756 5755 5753 5752 5750 5749
5790 5785 5781 5778 5775 5773 5771 5769 5766 5762 5758 5755 5753 5754 5754 5757 5759 5760 5760 5761 5760 5755 5751 5749 5749 5749 5751 5753 5754 5755 5751 5745 5740 5757 5753 5754 5753 5752 5753 5754 5752 5752 5752
5790 5785 5781 5776 5771 5769 5769 5767 5763 5760 5757 5755 5753 5751 5751 5754 5753 5753 5752 5750 5750 5751 5751 5751 5748 5750 5751 5751 5751 5749 5747 5744 5748 5752 5751 5746 5748 5749 5753 5752 5751 5749 5749
5793 5789 5785 5780 5775 5770 5767 5764 5761 5758 5754 5750 5748 5748 5748 5748 5749 5748 5746 5744 5742 5743 5744 5745 5746 5747 5747 5749 5747 5746 5743 5747 5748 5752 5752 5739 5746 5748 5751 5749 5748 5747 5744
5795 5793 5791 5784 5776 5773 5768 5763 5756 5753 5750 5747 5745 5743 5742 5743 5744 5744 5742 5739 5738 5737 5738 5738 5738 5740 5739 5740 5742 5742 5739 5738 5738 5744 5748 5742 5741 5740 5741 5743 5743 5742 5743
5798 5795 5787 5782 5787 5777 5766 5757 5751 5748 5744 5741 5741 5741 5739 5740 5740 5740 5738 5736 5733 5735 5737 5736 5735 5734 5732 5730 5733 5736 5739 5738 5738 5734 5744 5738 5737 5737 5732 5737 5736 5735 5735